User: anonymous   Login
Location: Fort Worth, Tx
(32.7431°N, 97.3695°W)
Time: 12:11:26
(UTC-05:00)
Language:

Tiros 1 - Orbit

View from above orbital plane
View from above orbital plane
View from above satellite
View from above satellite

Ground track
Ground track

The orbit data is extracted from the following two-line orbital elements,

1    29U 60002B   24053.45857372  .00001074  00000-0  18364-3 0  9991
2    29  48.3790  76.6319 0023807 232.5780 127.2966 14.76021188417174
Epoch (UTC): 22 February 2024 11:00:20
Eccentricity: 0.0023807
inclination: 48.3790°
perigee height: 625 km
apogee height: 658 km
right ascension of ascending node: 76.6319°
argument of perigee: 232.5780°
revolutions per day: 14.76021188
mean anomaly at epoch: 127.2966°
orbit number at epoch: 41717

The dashed part of the orbit path shows where the satellite is in the earth's shadow,  

DLR